This is the latest recevied weather packets stored in our database for station/object WB4ZUT. If no packets are shown the sender has not sent any weather packets the latest 10 day(s).
| Time | Temp. | Humidity | Pressure | Rain* | Wind** | Luminosity | Snow |
|---|---|---|---|---|---|---|---|
| 1778023398 | 11.67° C | 99% | 1007.4 hPa | 0 mm | - | 25 W/m² | - |
| 1778023094 | 12.22° C | 99% | 1007.4 hPa | 0 mm | - | 19 W/m² | - |
| 1778022793 | 12.22° C | 99% | 1007.4 hPa | 1.78 mm | - | 29 W/m² | - |
| 1778022490 | 12.22° C | 99% | 1007.7 hPa | 1.78 mm | - | 18 W/m² | - |
| 1778022187 | 12.22° C | 99% | 1007.8 hPa | 0 mm | - | 11 W/m² | - |
| 1778021883 | 12.22° C | 99% | 1007.6 hPa | 0 mm | - | 14 W/m² | - |
| 1778021581 | 12.78° C | 99% | 1007.6 hPa | 0 mm | - | 17 W/m² | - |
| 1778021275 | 12.78° C | 99% | 1007.6 hPa | 0 mm | - | 26 W/m² | - |
| 1778020974 | 12.78° C | 99% | 1007.4 hPa | 1.27 mm | - | 46 W/m² | - |
| 1778020671 | 12.78° C | 99% | 1007.5 hPa | 1.27 mm | - | 70 W/m² | - |
| 1778020367 | 12.78° C | 99% | 1007.2 hPa | 3.05 mm | - | 100 W/m² | - |
| 1778020063 | 13.33° C | 99% | 1007.4 hPa | 7.87 mm | - | 73 W/m² | - |
| 1778019760 | 15° C | 99% | 1007.4 hPa | 9.65 mm | - | 55 W/m² | - |
| 1778019457 | 16.11° C | 99% | 1007.4 hPa | 7.87 mm | - | 31 W/m² | - |
| 1778019153 | 16.11° C | 99% | 1007 hPa | 4.32 mm | - | 23 W/m² | - |
| 1778018850 | 16.11° C | 99% | 1006.8 hPa | 3.05 mm | - | 23 W/m² | - |
| 1778018548 | 16.11° C | 99% | 1006.8 hPa | 3.05 mm | - | 48 W/m² | - |
| 1778018246 | 16.11° C | 99% | 1007 hPa | 3.05 mm | - | 42 W/m² | - |
| 1778017943 | 16.11° C | 99% | 1006.7 hPa | 3.05 mm | - | 42 W/m² | - |
| 1778017641 | 16.11° C | 99% | 1006.9 hPa | 3.05 mm | - | 42 W/m² | - |
| 1778017338 | 16.11° C | 99% | 1007 hPa | 1.78 mm | - | 32 W/m² | - |
| 1778017035 | 16.11° C | 99% | 1006.8 hPa | 1.27 mm | - | 28 W/m² | - |
| 1778016733 | 16.11° C | 99% | 1006.8 hPa | 1.27 mm | - | 29 W/m² | - |
| 1778016429 | 16.11° C | 99% | 1006.9 hPa | 0 mm | - | 32 W/m² | - |
| 1778016126 | 16.11° C | 99% | 1006.9 hPa | 0 mm | - | 30 W/m² | - |
* Rain latest hour (hover to see other rain measurements)
** Current wind speed in m/s (hover to see current wind gust speed)